| time (UTC) | temp C | wind direction | speed KPH | gust KPH | rain 1hr cm | rain 24hr cm | rain mn cm | humidity % | barometer mb |
| 20260507001530 | 25 | 147 | 3.2 | 12.9 | 0.00 | 0.00 | 0.00 | 49 | 969.7 |
| 20260507000024 | 25 | 255 | 1.6 | 16.1 | 0.00 | 0.00 | 0.00 | 49 | 969.7 |
| 20260506234529 | 25 | 138 | 1.6 | 12.9 | 0.00 | 0.00 | 0.00 | 48 | 969.8 |
| 20260506233021 | 25 | 196 | 4.8 | 12.9 | 0.00 | 0.00 | 0.00 | 48 | 969.8 |
| 20260506231519 | 25 | 244 | 4.8 | 14.5 | 0.00 | 0.00 | 0.00 | 48 | 969.8 |
| 20260506230016 | 25 | 222 | 3.2 | 11.3 | 0.00 | 0.00 | 0.00 | 48 | 970.0 |
| 20260506224514 | 25 | 242 | 3.2 | 12.9 | 0.00 | 0.00 | 0.00 | 48 | 970.0 |
| 20260506223012 | 26 | 200 | 4.8 | 12.9 | 0.00 | 0.00 | 0.00 | 47 | 970.1 |
| 20260506221509 | 26 | 248 | 3.2 | 14.5 | 0.00 | 0.00 | 0.00 | 48 | 970.3 |
| 20260506220015 | 26 | 137 | 4.8 | 17.7 | 0.00 | 0.00 | 0.00 | 47 | 970.5 |
| 20260506214505 | 26 | 79 | 1.6 | 12.9 | 0.00 | 0.00 | 0.00 | 46 | 970.8 |
| 20260506213002 | 26 | 188 | 6.4 | 12.9 | 0.00 | 0.00 | 0.00 | 46 | 971.0 |
| 20260506211610 | 26 | 234 | 3.2 | 14.5 | 0.00 | 0.00 | 0.00 | 46 | 971.0 |
| 20260506210056 | 25 | 254 | 1.6 | 8.0 | 0.00 | 0.00 | 0.00 | 45 | 971.0 |
| 20260506204552 | 25 | 220 | 1.6 | 14.5 | 0.00 | 0.00 | 0.00 | 45 | 971.2 |
| 20260506203052 | 25 | 270 | 8.0 | 14.5 | 0.00 | 0.00 | 0.00 | 44 | 971.2 |
| 20260506201547 | 24 | 140 | 1.6 | 11.3 | 0.00 | 0.00 | 0.00 | 48 | 971.4 |
| 20260506200047 | 23 | 245 | 1.6 | 12.9 | 0.00 | 0.00 | 0.00 | 48 | 971.6 |
| 20260506194548 | 23 | 236 | 4.8 | 16.1 | 0.00 | 0.00 | 0.00 | 47 | 971.8 |
| 20260506193042 | 23 | 151 | 4.8 | 12.9 | 0.00 | 0.00 | 0.00 | 49 | 972.0 |
| 20260506191538 | 22 | 242 | 4.8 | 14.5 | 0.00 | 0.00 | 0.00 | 51 | 972.1 |
| 20260506190036 | 23 | 277 | 6.4 | 11.3 | 0.00 | 0.00 | 0.00 | 50 | 972.2 |
| 20260506184533 | 22 | 275 | 4.8 | 9.7 | 0.00 | 0.00 | 0.00 | 52 | 972.2 |
| 20260506183034 | 21 | 27 | 1.6 | 14.5 | 0.00 | 0.00 | 0.00 | 53 | 972.3 |
| 20260506181526 | 21 | 253 | 0.0 | 8.0 | 0.00 | 0.00 | 0.00 | 55 | 972.4 |
| 20260506180022 | 20 | 256 | 3.2 | 12.9 | 0.00 | 0.00 | 0.00 | 56 | 972.4 |
| 20260506174518 | 19 | 253 | 1.6 | 11.3 | 0.00 | 0.00 | 0.00 | 59 | 972.5 |
| 20260506173020 | 18 | 169 | 1.6 | 8.0 | 0.00 | 0.00 | 0.00 | 59 | 972.5 |
| 20260506171511 | 18 | 239 | 3.2 | 11.3 | 0.00 | 0.00 | 0.00 | 61 | 972.5 |
| 20260506170011 | 17 | 238 | 1.6 | 8.0 | 0.00 | 0.00 | 0.00 | 62 | 972.4 |
| 20260506164505 | 17 | 170 | 0.0 | 6.4 | 0.00 | 0.00 | 0.00 | 64 | 972.3 |
| 20260506163001 | 16 | 227 | 1.6 | 8.0 | 0.00 | 0.00 | 0.00 | 67 | 972.4 |
| 20260506161557 | 15 | 229 | 0.0 | 6.4 | 0.00 | 0.00 | 0.00 | 72 | 972.5 |
| 20260506160106 | 14 | 238 | 4.8 | 8.0 | 0.00 | 0.00 | 0.00 | 73 | 972.5 |
| 20260506154552 | 13 | 229 | 1.6 | 8.0 | 0.00 | 0.00 | 0.00 | 75 | 972.5 |
| 20260506153043 | 13 | 233 | 0.0 | 6.4 | 0.00 | 0.00 | 0.00 | 77 | 972.6 |
| 20260506151541 | 13 | 225 | 0.0 | 4.8 | 0.00 | 0.00 | 0.00 | 77 | 972.7 |
| 20260506150039 | 13 | 233 | 0.0 | 4.8 | 0.00 | 0.00 | 0.00 | 76 | 972.6 |
| 20260506144536 | 13 | 113 | 0.0 | 3.2 | 0.00 | 0.00 | 0.00 | 79 | 972.6 |
| 20260506143036 | 12 | 111 | 1.6 | 3.2 | 0.00 | 0.00 | 0.00 | 82 | 972.6 |
| 20260506141528 | 11 | 63 | 0.0 | 3.2 | 0.00 | 0.00 | 0.00 | 85 | 972.6 |
| 20260506140023 | 10 | 10 | 0.0 | 0.0 | 0.00 | 0.00 | 0.00 | 85 | 972.4 |
| 20260506134520 | 10 | 10 | 0.0 | 3.2 | 0.00 | 0.00 | 0.00 | 86 | 972.1 |
| 20260506133017 | 9 | 54 | 1.6 | 4.8 | 0.00 | 0.00 | 0.00 | 85 | 972.0 |
| 20260506131517 | 9 | 44 | 0.0 | 4.8 | 0.00 | 0.00 | 0.00 | 84 | 972.0 |
| 20260506130017 | 9 | 36 | 3.2 | 6.4 | 0.00 | 0.00 | 0.00 | 85 | 972.0 |
| 20260506124512 | 9 | 37 | 1.6 | 4.8 | 0.00 | 0.00 | 0.00 | 85 | 971.6 |
| 20260506123011 | 9 | 48 | 1.6 | 4.8 | 0.00 | 0.00 | 0.00 | 84 | 971.6 |
| 20260506121510 | 9 | 29 | 3.2 | 6.4 | 0.00 | 0.00 | 0.00 | 84 | 971.6 |
| 20260506120009 | 9 | 39 | 1.6 | 4.8 | 0.00 | 0.00 | 0.00 | 84 | 971.4 |
| 20260506114510 | 10 | 39 | 0.0 | 8.0 | 0.00 | 0.00 | 0.00 | 84 | 971.5 |
| 20260506113009 | 10 | 31 | 3.2 | 8.0 | 0.00 | 0.00 | 0.00 | 85 | 971.5 |
| 20260506111506 | 10 | 36 | 3.2 | 9.7 | 0.00 | 0.00 | 0.00 | 86 | 971.5 |
| 20260506110006 | 9 | 38 | 3.2 | 4.8 | 0.00 | 0.00 | 0.00 | 87 | 971.3 |
| 20260506104504 | 9 | 30 | 3.2 | 6.4 | 0.00 | 0.00 | 0.00 | 87 | 971.5 |
| 20260506103005 | 10 | 40 | 1.6 | 4.8 | 0.00 | 0.00 | 0.00 | 86 | 971.5 |
| 20260506101502 | 10 | 53 | 1.6 | 4.8 | 0.00 | 0.00 | 0.00 | 86 | 971.5 |
| 20260506100100 | 9 | 31 | 3.2 | 6.4 | 0.00 | 0.00 | 0.00 | 87 | 971.5 |
| 20260506094558 | 9 | 178 | 0.0 | 0.0 | 0.00 | 0.00 | 0.00 | 88 | 971.5 |
| 20260506093057 | 9 | 185 | 0.0 | 3.2 | 0.00 | 0.00 | 0.00 | 89 | 971.7 |
| 20260506091555 | 9 | 185 | 0.0 | 0.0 | 0.00 | 0.00 | 0.00 | 88 | 971.7 |
| 20260506090053 | 9 | 186 | 0.0 | 0.0 | 0.00 | 0.00 | 0.00 | 88 | 971.8 |
| 20260506084552 | 9 | 186 | 0.0 | 0.0 | 0.00 | 0.00 | 0.00 | 87 | 972.0 |
| 20260506083051 | 10 | 23 | 0.0 | 0.0 | 0.00 | 0.00 | 0.00 | 86 | 972.0 |
| 20260506081552 | 10 | 28 | 0.0 | 0.0 | 0.00 | 0.00 | 0.00 | 87 | 972.0 |
| 20260506073053 | 10 | 24 | 0.0 | 0.0 | 0.00 | 0.00 | 0.00 | 85 | 972.1 |
| 20260506071551 | 10 | 23 | 0.0 | 0.0 | 0.00 | 0.00 | 0.00 | 84 | 972.1 |
| 20260506070104 | 10 | 25 | 0.0 | 0.0 | 0.00 | 0.00 | 0.00 | 84 | 971.8 |
| 20260506061539 | 10 | 28 | 0.0 | 0.0 | 0.00 | 0.00 | 0.00 | 82 | 971.4 |
| 20260506044540 | 11 | 17 | 0.0 | 0.0 | 0.00 | 0.00 | 0.00 | 77 | 970.7 |
| 20260506043030 | 11 | 19 | 0.0 | 0.0 | 0.00 | 0.00 | 0.00 | 76 | 970.6 |
| 20260506041528 | 12 | 21 | 0.0 | 0.0 | 0.00 | 0.00 | 0.00 | 74 | 970.4 |
| 20260506040027 | 12 | 19 | 0.0 | 0.0 | 0.00 | 0.00 | 0.00 | 73 | 970.2 |
| 20260506034525 | 12 | 22 | 0.0 | 0.0 | 0.00 | 0.00 | 0.00 | 71 | 969.9 |
| 20260506033024 | 12 | 27 | 0.0 | 1.6 | 0.00 | 0.00 | 0.00 | 71 | 969.9 |
| 20260506031525 | 13 | 360 | 0.0 | 1.6 | 0.00 | 0.00 | 0.00 | 69 | 969.7 |
| 20260506030022 | 13 | 360 | 0.0 | 1.6 | 0.00 | 0.00 | 0.00 | 67 | 969.4 |
| 20260506024528 | 15 | 16 | 0.0 | 3.2 | 0.00 | 0.00 | 0.00 | 65 | 969.2 |
| 20260506023020 | 15 | 14 | 0.0 | 4.8 | 0.00 | 0.00 | 0.00 | 65 | 969.0 |
| 20260506021518 | 15 | 15 | 1.6 | 6.4 | 0.00 | 0.00 | 0.00 | 64 | 969.0 |
| 20260506020018 | 15 | 17 | 0.0 | 3.2 | 0.00 | 0.00 | 0.00 | 62 | 968.8 |
| 20260506014517 | 16 | 13 | 1.6 | 8.0 | 0.00 | 0.00 | 0.00 | 60 | 968.8 |
| 20260506013022 | 16 | 12 | 3.2 | 8.0 | 0.00 | 0.00 | 0.00 | 60 | 968.7 |
| 20260506011517 | 16 | 14 | 0.0 | 6.4 | 0.00 | 0.00 | 0.00 | 59 | 968.7 |
| 20260506010015 | 16 | 360 | 1.6 | 9.7 | 0.00 | 0.00 | 0.00 | 59 | 968.6 |
| 20260506004514 | 17 | 360 | 3.2 | 12.9 | 0.00 | 0.00 | 0.00 | 58 | 968.5 |
| 20260506003014 | 17 | 228 | 4.8 | 16.1 | 0.00 | 0.00 | 0.00 | 57 | 968.5 |